Location: Bieujac
(44.5398°N, 0.1549°W)
Time: 12:21:08
(UTC+00:00)

NOSS 3-3 (A) - Pass Details

Date: 20 February 2020
Orbit: 833 x 1379 km, 63.4° (Epoch: 03 April)

Event Time Altitude Azimuth Distance (km) Brightness Sun altitude
Rises 05:10:52 0° 190° (S) 3,396 6.7 -19.1°
Reaches altitude 10° 05:13:23 10° 182° (S) 2,499 6.1 -18.6°
Maximum altitude 05:18:40 39° 115° (ESE) 1,355 5.3 -17.7°
Drops below altitude 10° 05:24:30 10° 49° (NE) 2,770 7.1 -16.6°
Sets 05:27:25 0° 42° (NE) 3,811 7.8 -16.1°
